SCP
0 0 0 0 0 0 0 0 0 0 0 0 0 0 0 0 0 0 0 0 0 0
0 0 0 0 0 0 0 0 0 0 0 0 0 0 0 0 0 0 0 0 0 0
0 0 0 0 0 0 0 0 0 0 0 0 0 0 0 0 0 0 0 0 0 -0
0 0 0 0 0 0 0 0 0 0 0 0 0 0 0 0 0 0 0 0 -0 -0
0 0 0 0 0 0 0 0 0 0 0 0 0 0 0 0 0 0 0 0 0 0
0 0 0 0 0 0 0 0 0 0 0 0 0 0 0 0 0 0 0 0 0 0
0 0 0 0 0 0 0 0 0 0 0 0 0 0 0 0 0 0 0 0 0 0
0 0 0 0 0 0 0 0 0 0 0 0 0 0 0 0 0 0 0 0 0 0
0 0 0 0 0 0 0 0 0 0 0 0 0 0 0 0 0 0 0 0 0 0
0 0 0 0 0 0 0 0 0 0 0 0 0 0 0 0 0 0 0 0 0 0
0 0 0 0 0 0 0 0 0 0 0 0 0 0 0 0 0 0 0 0 0 0
0 0 0 0 0 0 0 0 0 0 0 0 0 0 0 0 0 0 0 0 0 0
0 0 0 0 0 0 0 0 0 0 0 0 0 0 0 0 0 0 0 0 0 0
0 0 0 0 0 0 0 0 0 0 0 0 0 0 0 0 0 0 0 0 0 0
Wind_Speed_500mb
25 28 30 34 39 39 41 42 46 46 45 45 48 51 50 49 43 40 42 39 38 41
27 31 33 36 38 40 41 44 46 46 46 46 50 54 54 49 46 41 38 36 34 33
28 31 34 36 41 43 43 45 47 49 47 48 53 60 57 50 41 39 34 31 29 26
30 33 34 38 41 44 45 47 48 49 49 52 64 61 56 45 37 38 36 29 31 19
31 33 36 40 44 47 46 46 48 49 51 59 66 67 52 44 45 50 41 35 48 22
31 33 38 41 45 47 49 48 51 51 54 64 68 69 54 51 49 54 40 45 59 38
32 37 40 42 47 50 49 50 53 53 57 64 68 66 57 57 62 57 48 57 65 61
32 36 40 44 46 48 49 51 52 56 62 65 74 67 60 65 69 65 57 66 73 71
32 37 42 45 45 48 51 53 57 60 63 72 82 66 68 70 77 76 67 72 75 65
32 38 42 42 47 49 50 52 59 63 66 70 87 71 73 81 82 80 77 72 77 79
33 37 41 44 48 49 49 52 55 62 74 78 92 76 84 86 84 83 83 79 78 84
33 38 43 48 49 47 48 51 55 59 72 80 92 85 87 91 92 91 88 84 78 81
36 41 46 49 47 45 45 49 52 60 67 83 85 91 87 97 99 101 96 94 89 81
37 42 45 45 47 44 45 50 54 59 66 72 84 91 94 89 97 101 103 103 106 97
Wind_Direction_500mb
355 354 352 346 344 340 336 333 333 332 330 325 321 322 326 318 311 304 299 289 278 268
359 357 352 348 345 341 339 338 335 334 332 332 330 331 332 329 321 315 309 302 288 274
359 358 354 350 348 347 344 342 342 340 338 339 334 341 342 337 330 331 330 320 307 294
4 0 356 355 353 352 350 348 347 345 345 343 342 350 348 343 352 358 354 356 359 360
7 3 0 360 1 1 357 355 352 353 352 349 352 354 353 359 10 8 3 26 29 43
10 7 6 6 7 7 5 1 1 0 359 358 357 359 8 17 21 20 31 34 43 62
15 14 13 13 15 12 10 7 6 5 3 4 360 11 27 30 30 35 51 52 65 72
20 17 19 21 18 15 15 13 10 10 10 7 11 24 34 37 40 46 56 70 76 81
25 23 25 24 20 21 20 18 16 17 16 11 18 36 46 46 49 54 60 69 79 93
30 30 29 25 27 25 22 22 22 20 23 17 20 39 50 52 52 57 62 73 80 89
38 36 33 31 32 29 26 26 23 24 27 27 27 40 52 51 59 64 66 69 78 86
45 43 41 38 34 32 29 30 29 28 31 33 31 38 53 60 63 68 70 73 77 86
53 50 48 44 39 35 33 33 34 35 35 36 38 41 52 60 65 70 73 77 78 80
59 56 51 47 44 39 37 39 38 38 39 40 41 46 51 59 64 68 73 76 79 78
Wind_Speed_850mb
25 28 30 34 39 39 41 42 46 46 45 45 48 51 50 49 43 40 42 39 38 41
27 31 33 36 38 40 41 44 46 46 46 46 50 54 54 49 46 41 38 36 34 33
28 31 34 36 41 43 43 45 47 49 47 48 53 60 57 50 41 39 34 31 29 26
30 33 34 38 41 44 45 47 48 49 49 52 64 61 56 45 37 38 36 29 31 19
31 33 36 40 44 47 46 46 48 49 51 59 66 67 52 44 45 50 41 35 48 22
31 33 38 41 45 47 49 48 51 51 54 64 68 69 54 51 49 54 40 45 59 38
32 37 40 42 47 50 49 50 53 53 57 64 68 66 57 57 62 57 48 57 65 61
32 36 40 44 46 48 49 51 52 56 62 65 74 67 60 65 69 65 57 66 73 71
32 37 42 45 45 48 51 53 57 60 63 72 82 66 68 70 77 76 67 72 75 65
32 38 42 42 47 49 50 52 59 63 66 70 87 71 73 81 82 80 77 72 77 79
33 37 41 44 48 49 49 52 55 62 74 78 92 76 84 86 84 83 83 79 78 84
33 38 43 48 49 47 48 51 55 59 72 80 92 85 87 91 92 91 88 84 78 81
36 41 46 49 47 45 45 49 52 60 67 83 85 91 87 97 99 101 96 94 89 81
37 42 45 45 47 44 45 50 54 59 66 72 84 91 94 89 97 101 103 103 106 97
Wind_Direction_850mb
355 354 352 346 344 340 336 333 333 332 330 325 321 322 326 318 311 304 299 289 278 268
359 357 352 348 345 341 339 338 335 334 332 332 330 331 332 329 321 315 309 302 288 274
359 358 354 350 348 347 344 342 342 340 338 339 334 341 342 337 330 331 330 320 307 294
4 0 356 355 353 352 350 348 347 345 345 343 342 350 348 343 352 358 354 356 359 360
7 3 0 360 1 1 357 355 352 353 352 349 352 354 353 359 10 8 3 26 29 43
10 7 6 6 7 7 5 1 1 0 359 358 357 359 8 17 21 20 31 34 43 62
15 14 13 13 15 12 10 7 6 5 3 4 360 11 27 30 30 35 51 52 65 72
20 17 19 21 18 15 15 13 10 10 10 7 11 24 34 37 40 46 56 70 76 81
25 23 25 24 20 21 20 18 16 17 16 11 18 36 46 46 49 54 60 69 79 93
30 30 29 25 27 25 22 22 22 20 23 17 20 39 50 52 52 57 62 73 80 89
38 36 33 31 32 29 26 26 23 24 27 27 27 40 52 51 59 64 66 69 78 86
45 43 41 38 34 32 29 30 29 28 31 33 31 38 53 60 63 68 70 73 77 86
53 50 48 44 39 35 33 33 34 35 35 36 38 41 52 60 65 70 73 77 78 80
59 56 51 47 44 39 37 39 38 38 39 40 41 46 51 59 64 68 73 76 79 78